Home > Time Zones > World Clock > Weather > U.S.A. > Adak > Past weeks

Flag for U.S.A. Weather past 2 weeks in Adak, Alaska, U.S.A.

Now
36 °F

Partly sunny.


Feels Like: 24 °F
Forecast: 36 / 39 °F
Wind: 21 mph from Northeast

Location: Adak

Current Time: Jan 29, 2015 at 5:43:46 PM

Latest Report: Jan 29, 2015 at 4:56 PM


Visibility: 10 mi

Pressure: 30.52 "Hg

Humidity: 60%

Dew point: 23 °F

Location of AdakLocation

Historic Weather in Adak — Graph

°F

Adak temperature yesterday

Maximum temperature yesterday: 34 °F (at 11:36 AM)
Minimum temperature yesterday: 34 °F (at 11:36 AM)
Average temperature yesterday: 34 °F

Past Weeks' High & Low Weather Summary

 TemperatureHumidityPressure
High43 °F (Jan 19, 2:16 PM)93% (Jan 17, 10:16 AM)30.53 "Hg (Jan 17, 10:16 AM)
Low27 °F (Jan 18, 9:36 AM)51% (Jan 28, 3:36 PM)29.07 "Hg (Jan 21, 5:16 AM)
Average36 °F71%29.59 "Hg
* Reported Jan 15 1:56 PM — Jan 29 4:36 PM, Adak, Weather by CustomWeather, © 2014

Note: Actual official high and low records may vary slightly from our data, if they occured in-between our weather recording intervals... More about our weather records

Advertising

Adak weather history for previous 24 hours

 ConditionsComfort  
Time TempWeatherWind HumidityBarometerVisibility
4:36 PM
Jan 29
36 °FPartly sunny.20 mph60%30.52 "Hg10 mi
4:16 PM36 °FPartly sunny.21 mph60%30.52 "Hg10 mi
3:56 PM36 °FPartly sunny.24 mph65%30.51 "Hg10 mi
3:36 PM36 °FPartly sunny.24 mph60%30.51 "Hg10 mi
3:16 PM36 °FPartly sunny.23 mph60%30.51 "Hg10 mi
2:56 PM36 °FPassing clouds.24 mph65%30.51 "Hg10 mi
2:36 PM36 °FScattered clouds.28 mph60%30.51 "Hg10 mi
2:16 PM36 °FPartly sunny.26 mph56%30.51 "Hg10 mi
1:56 PM36 °FPartly sunny.25 mph60%30.51 "Hg10 mi
1:36 PM36 °FPartly sunny.21 mph56%30.51 "Hg10 mi
1:16 PM36 °FPartly sunny.18 mph60%30.51 "Hg10 mi
12:56 PM36 °FPartly sunny.17 mph56%30.52 "Hg10 mi
12:36 PM34 °FScattered clouds.15 mph60%30.52 "Hg10 mi
12:16 PM34 °FPartly sunny.20 mph60%30.53 "Hg10 mi
11:56 AM36 °FPartly sunny.22 mph56%30.53 "Hg10 mi
11:36 AM34 °FPartly sunny.21 mph60%30.53 "Hg10 mi
11:16 AM34 °FOvercast.25 mph60%30.53 "Hg10 mi
10:56 AM36 °FOvercast.22 mph60%30.52 "Hg10 mi
10:36 AM34 °FOvercast.24 mph60%30.53 "Hg10 mi
10:16 AM34 °FOvercast.24 mph60%30.53 "Hg10 mi
9:56 AM34 °FOvercast.21 mph60%30.53 "Hg10 mi
9:36 AM34 °FMostly cloudy.20 mph56%30.53 "Hg10 mi
9:16 AM34 °FPartly sunny.20 mph56%30.53 "Hg10 mi
8:56 AM34 °FOvercast.18 mph60%30.53 "Hg10 mi
8:36 AM34 °FOvercast.21 mph56%30.52 "Hg10 mi
8:16 AM34 °FOvercast.18 mph56%30.52 "Hg10 mi
7:56 AM32 °FPassing clouds.23 mph60%30.52 "Hg10 mi
7:36 AM34 °FOvercast.20 mph56%30.52 "Hg10 mi
7:16 AM34 °FPassing clouds.23 mph56%30.51 "Hg10 mi
6:56 AM34 °FPassing clouds.21 mph56%30.52 "Hg10 mi
6:36 AM34 °FMostly cloudy.22 mph60%30.52 "Hg10 mi
6:16 AM34 °FOvercast.25 mph56%30.51 "Hg10 mi
5:56 AM34 °FMostly cloudy.17 mph56%30.51 "Hg10 mi
5:36 AM34 °FOvercast.21 mph56%30.51 "Hg10 mi
5:16 AM34 °FOvercast.20 mph56%30.51 "Hg10 mi
4:56 AM34 °FOvercast.24 mph56%30.50 "Hg10 mi
4:36 AM34 °FMostly cloudy.24 mph56%30.50 "Hg10 mi
4:16 AM34 °FOvercast.24 mph56%30.50 "Hg10 mi
3:56 AM34 °FOvercast.21 mph56%30.50 "Hg10 mi
3:36 AM34 °FMostly cloudy.29 mph51%30.50 "Hg10 mi
3:16 AM34 °FOvercast.26 mph56%30.50 "Hg10 mi
2:56 AM34 °FOvercast.28 mph56%30.50 "Hg10 mi
2:36 AM34 °FMostly cloudy.22 mph56%30.51 "Hg10 mi
2:16 AM34 °FMostly cloudy.24 mph56%30.51 "Hg10 mi
1:56 AM34 °FMostly cloudy.18 mph60%30.52 "Hg10 mi
1:36 AM34 °FOvercast.26 mph56%30.51 "Hg10 mi
1:16 AM34 °FOvercast.24 mph51%30.51 "Hg10 mi
12:56 AM34 °FMostly cloudy.17 mph56%30.51 "Hg10 mi
12:36 AM34 °FMostly cloudy.26 mph56%30.50 "Hg10 mi
12:16 AM34 °FOvercast.26 mph56%30.49 "Hg10 mi
11:56 PM
Jan 28
34 °FMostly cloudy.24 mph56%30.48 "Hg10 mi
11:36 PM34 °FOvercast.24 mph56%30.47 "Hg10 mi
11:16 PM34 °FMostly cloudy.26 mph56%30.46 "Hg10 mi
10:56 PM34 °FOvercast.32 mph56%30.45 "Hg10 mi
10:36 PM34 °FOvercast.30 mph56%30.44 "Hg10 mi
10:16 PM34 °FMostly cloudy.33 mph56%30.43 "Hg10 mi
9:56 PM34 °FMostly cloudy.31 mph60%30.43 "Hg10 mi
9:36 PM34 °FMostly cloudy.25 mph56%30.43 "Hg10 mi
9:16 PM34 °FMostly cloudy.31 mph56%30.42 "Hg10 mi
8:56 PM34 °FMostly cloudy.32 mph51%30.42 "Hg10 mi
8:36 PM34 °FOvercast.30 mph51%30.42 "Hg10 mi
8:16 PM34 °FMostly cloudy.24 mph51%30.42 "Hg10 mi
7:56 PM34 °FMostly cloudy.24 mph51%30.42 "Hg10 mi
7:36 PM34 °FMostly cloudy.25 mph56%30.41 "Hg10 mi
7:16 PM34 °FOvercast.32 mph60%30.40 "Hg10 mi
6:56 PM34 °FMostly cloudy.26 mph51%30.40 "Hg10 mi
6:36 PM34 °FOvercast.26 mph51%30.38 "Hg10 mi
6:16 PM34 °FOvercast.25 mph56%30.38 "Hg10 mi
5:56 PM34 °FOvercast.25 mph51%30.37 "Hg10 mi
5:36 PM34 °FOvercast.28 mph56%30.36 "Hg10 mi
5:16 PM34 °FOvercast.29 mph51%30.36 "Hg10 mi
Weather by CustomWeather, © 2014

See weather overviewHow to use our weather pages